Sedona, AZ

12:55 AM MST on December 16, 2019 (GMT -0700)
Sedona

Weather History for KSEZ - August, 2019

Change the Weather History Date:

Wednesday, August 21, 2019

  Actual Average Record
Temperature  
Mean Temperature 86 °F -  
Max Temperature 100 °F 92 °F 100 °F (2019)
Min Temperature 71 °F 61 °F 60 °F (2014)
Cooling Degree Days 20    
Growing Degree Days 36 (Base 50)    
Moisture  
Dew Point 28 °F    
Average Humidity 13    
Maximum Humidity 21    
Minimum Humidity 6    
Precipitation  
Precipitation 0.00 in - - ()
Sea Level Pressure  
Sea Level Pressure 30.07 in    
Wind  
Wind Speed 9 mph (NE)    
Max Wind Speed 14 mph    
Max Gust Speed 20 mph    
Visibility 10 miles    
Events      
Averages and records for this station are not official NWS values.
T = Trace of Precipitation, MM = Missing Value Source: NWS Daily Summary

Daily Weather History Graph

Daily Weather History Graph

Search for Another Location

Airport or City:

Astronomy

Aug. 21, 2019 Rise Set
Actual Time 5:51 AM MST 7:08 PM MST
Civil Twilight 5:25 AM MST 7:34 PM MST
Nautical Twilight 4:53 AM MST 8:05 PM MST
Astronomical Twilight 4:21 AM MST 8:38 PM MST
Moon 10:41 PM MST (8/21) 11:18 AM MST (8/21)
Length of Visible Light 14h 09m
Length of Day
13h 16m
Waning Gibbous, 68% of the Moon is Illuminated
Aug 21
Waning Gibbous
Aug 23
Last Quarter
Aug 30
New
Sep 5
First Quarter
Sep 13
Full

Hourly Weather History & Observations

Time (MST) Temp. Dew Point Humidity Pressure Visibility Wind Dir Wind Speed Gust Speed Precip Events Conditions
12:15 AM 77.0 °F 33.8 °F 21% 30.11 in 10.0 mi NNE 10.4 mph - N/A   Clear
12:35 AM 78.8 °F 32.0 °F 18% 30.11 in 10.0 mi NNE 10.4 mph - N/A   Clear
12:55 AM 78.8 °F 32.0 °F 18% 30.10 in 10.0 mi NNE 12.7 mph - N/A   Clear
1:15 AM 77.0 °F 32.0 °F 19% 30.10 in 10.0 mi NNE 13.8 mph - N/A   Clear
1:35 AM 78.8 °F 32.0 °F 18% 30.10 in 10.0 mi NNE 12.7 mph - N/A   Clear
1:55 AM 77.0 °F 32.0 °F 19% 30.10 in 10.0 mi NNE 12.7 mph - N/A   Clear
2:15 AM 77.0 °F 32.0 °F 19% 30.10 in 10.0 mi NNE 11.5 mph - N/A   Clear
2:35 AM 77.0 °F 32.0 °F 19% 30.10 in 10.0 mi NNE 10.4 mph - N/A   Clear
2:55 AM 77.0 °F 30.2 °F 18% 30.10 in 10.0 mi NNE 12.7 mph - N/A   Clear
3:15 AM 73.4 °F 30.2 °F 20% 30.10 in 10.0 mi NNE 12.7 mph - N/A   Clear
3:35 AM 75.2 °F 30.2 °F 19% 30.10 in 10.0 mi NNE 12.7 mph - N/A   Clear
3:55 AM 75.2 °F 30.2 °F 19% 30.10 in 10.0 mi NNE 12.7 mph - N/A   Clear
4:35 AM 75.2 °F 28.4 °F 18% 30.10 in 10.0 mi NNE 12.7 mph - N/A   Clear
4:55 AM 73.4 °F 28.4 °F 19% 30.11 in 10.0 mi NNE 11.5 mph - N/A   Clear
5:15 AM 73.4 °F 28.4 °F 19% 30.11 in 10.0 mi NNE 10.4 mph - N/A   Clear
5:35 AM 73.4 °F 28.4 °F 19% 30.11 in 10.0 mi NNE 9.2 mph - N/A   Clear
5:55 AM 71.6 °F 28.4 °F 20% 30.11 in 10.0 mi NNE 11.5 mph - N/A   Clear
6:15 AM 71.6 °F 28.4 °F 20% 30.11 in 10.0 mi NNE 13.8 mph - N/A   Clear
6:35 AM 73.4 °F 28.4 °F 19% 30.11 in 10.0 mi NNE 13.8 mph - N/A   Clear
6:55 AM 73.4 °F 28.4 °F 19% 30.12 in 10.0 mi NNE 12.7 mph - N/A   Clear
7:15 AM 77.0 °F 28.4 °F 17% 30.12 in 10.0 mi NE 12.7 mph 18.4 mph N/A   Clear
7:35 AM 78.8 °F 30.2 °F 17% 30.13 in 10.0 mi NE 9.2 mph 16.1 mph N/A   Clear
7:55 AM 78.8 °F 30.2 °F 17% 30.13 in 10.0 mi ENE 9.2 mph - N/A   Clear
8:15 AM 80.6 °F 32.0 °F 17% 30.14 in 10.0 mi East 8.1 mph - N/A   Clear
8:35 AM 82.4 °F 32.0 °F 16% 30.14 in 10.0 mi ESE 3.5 mph - N/A   Clear
8:55 AM 84.2 °F 32.0 °F 15% 30.14 in 10.0 mi Calm Calm - N/A   Clear
9:15 AM 86.0 °F 32.0 °F 14% 30.14 in 10.0 mi SSE 3.5 mph - N/A   Clear
9:35 AM 87.8 °F 32.0 °F 14% 30.14 in 10.0 mi Calm Calm - N/A   Clear
9:55 AM 89.6 °F 32.0 °F 13% 30.14 in 10.0 mi Calm Calm - N/A   Clear
10:15 AM 91.4 °F 32.0 °F 12% 30.14 in 10.0 mi SSE 5.8 mph - N/A   Clear
10:35 AM 95.0 °F 33.8 °F 12% 30.14 in 10.0 mi South 8.1 mph - N/A   Clear
10:55 AM 91.4 °F 33.8 °F 13% 30.13 in 10.0 mi South 4.6 mph - N/A   Clear
11:15 AM 95.0 °F 33.8 °F 12% 30.13 in 10.0 mi South 9.2 mph - N/A   Clear
11:35 AM 96.8 °F 33.8 °F 11% 30.12 in 10.0 mi South 11.5 mph 19.6 mph N/A   Clear
11:55 AM 93.2 °F 32.0 °F 11% 30.11 in 10.0 mi SSE 12.7 mph 18.4 mph N/A   Clear
12:15 PM 96.8 °F 32.0 °F 10% 30.10 in 10.0 mi SSE 12.7 mph 17.3 mph N/A   Clear
12:35 PM 95.0 °F 32.0 °F 11% 30.10 in 10.0 mi SSW 3.5 mph - N/A   Clear
12:55 PM 95.0 °F 32.0 °F 11% 30.09 in 10.0 mi WSW 3.5 mph 18.4 mph N/A   Clear
1:15 PM 96.8 °F 32.0 °F 10% 30.08 in 10.0 mi SW 4.6 mph - N/A   Clear
1:35 PM 100.4 °F 32.0 °F 9% 30.07 in 10.0 mi South 5.8 mph 16.1 mph N/A   Clear
1:55 PM 96.8 °F 30.2 °F 10% 30.06 in 10.0 mi Calm Calm - N/A   Clear
2:15 PM 96.8 °F 30.2 °F 10% 30.05 in 10.0 mi West 9.2 mph - N/A   Clear
2:35 PM 96.8 °F 30.2 °F 10% 30.04 in 10.0 mi West 3.5 mph - N/A   Clear
2:55 PM 100.4 °F 30.2 °F 9% 30.03 in 10.0 mi SSW 5.8 mph 16.1 mph N/A   Clear
3:15 PM 96.8 °F 30.2 °F 10% 30.02 in 10.0 mi South 5.8 mph - N/A   Clear
3:35 PM 98.6 °F 30.2 °F 9% 30.01 in 10.0 mi WNW 3.5 mph - N/A   Clear
3:55 PM 98.6 °F 30.2 °F 9% 30.00 in 10.0 mi SSW 9.2 mph - N/A   Clear
4:15 PM 98.6 °F 28.4 °F 8% 29.99 in 10.0 mi SSW 9.2 mph 16.1 mph N/A   Clear
4:35 PM 98.6 °F 28.4 °F 8% 29.99 in 10.0 mi SSE 9.2 mph 19.6 mph N/A   Clear
4:55 PM 96.8 °F 28.4 °F 9% 29.98 in 10.0 mi SSE 8.1 mph 17.3 mph N/A   Clear
5:15 PM 96.8 °F 26.6 °F 8% 29.98 in 10.0 mi South 10.4 mph 17.3 mph N/A   Clear
5:35 PM 96.8 °F 19.4 °F 6% 29.98 in 10.0 mi West 11.5 mph - N/A   Clear
5:55 PM 95.0 °F 19.4 °F 6% 29.98 in 10.0 mi West 13.8 mph 18.4 mph N/A   Clear
6:15 PM 93.2 °F 19.4 °F 7% 29.98 in 10.0 mi West 12.7 mph 18.4 mph N/A   Clear
6:35 PM 91.4 °F 17.6 °F 7% 29.98 in 10.0 mi WSW 6.9 mph - N/A   Clear
6:55 PM 89.6 °F 17.6 °F 7% 29.99 in 10.0 mi West 8.1 mph - N/A   Clear
8:20 PM 86.0 °F 17.6 °F 8% 30.02 in 10.0 mi NW 4.6 mph - N/A   Clear
9:00 PM 86.0 °F 17.6 °F 8% 30.03 in 10.0 mi Calm Calm - N/A   Clear
9:15 PM 86.0 °F 17.6 °F 8% 30.03 in 10.0 mi SSE 4.6 mph - N/A   Clear
9:35 PM 86.0 °F 19.4 °F 9% 30.03 in 7.0 mi SSE 4.6 mph - N/A   Clear
9:55 PM 84.2 °F 19.4 °F 9% 30.03 in 10.0 mi Calm Calm - N/A   Clear
10:10 PM 86.0 °F 19.4 °F 9% 30.03 in 10.0 mi Calm Calm - N/A   Clear
10:35 PM 86.0 °F 19.4 °F 9% 30.03 in 10.0 mi Calm Calm - N/A   Clear
10:55 PM 78.8 °F 21.2 °F 12% 30.03 in 10.0 mi North 6.9 mph - N/A   Clear
11:20 PM 78.8 °F 21.2 °F 12% 30.03 in 10.0 mi North 6.9 mph - N/A   Clear
11:35 PM 78.8 °F 21.2 °F 12% 30.03 in 10.0 mi North 6.9 mph - N/A   Clear
11:55 PM 78.8 °F 21.2 °F 12% 30.03 in 10.0 mi NNE 6.9 mph - N/A   Clear